Overview Statistics Trail Chart Weather Telemetry Raw packets
 

This is the latest recevied weather packets stored in our database for station/object KB4MOX. If no packets are shown the sender has not sent any weather packets the latest 10 day(s).

<< 1 2 3 4 >>
Time Temp. Humidity Pressure Rain* Wind** Luminosity Snow
1788628998 35.56° C 48% 1013.6 hPa 0 mm - 774 W/m² -
1788628694 35° C 50% 1013.6 hPa 0 mm - 778 W/m² -
1788628391 35.56° C 47% 1013.7 hPa 0 mm - 772 W/m² -
1788628087 35° C 50% 1013.7 hPa 0 mm - 772 W/m² -
1788627803 35° C 50% 1013.8 hPa 0 mm - 768 W/m² -
1788627481 35° C 51% 1013.8 hPa 0 mm - 766 W/m² -
1788627178 35° C 51% 1013.9 hPa 0 mm - 763 W/m² -
1788626872 34.44° C 51% 1014 hPa 0 mm - 769 W/m² -
1788626572 34.44° C 54% 1014.1 hPa 0 mm - 786 W/m² -
1788626268 34.44° C 54% 1014 hPa 0 mm - 774 W/m² -
1788625973 33.33° C 56% 1014.1 hPa 0 mm - 765 W/m² -
1788625660 33.33° C 55% 1014.3 hPa 0 mm - 761 W/m² -
1788625359 33.89° C 57% 1014.4 hPa 0 mm - 753 W/m² -
1788625054 33.89° C 57% 1014.3 hPa 0 mm - 755 W/m² -
1788624752 33.33° C 60% 1014.4 hPa 0 mm - 741 W/m² -
1788624452 32.78° C 61% 1014.5 hPa 0 mm - 724 W/m² -
1788624151 32.78° C 63% 1014.5 hPa 0 mm - 718 W/m² -
1788623847 32.78° C 64% 1014.7 hPa 0 mm - 705 W/m² -
1788623545 32.22° C 65% 1014.6 hPa 0 mm - 695 W/m² -
1788623239 32.22° C 67% 1014.8 hPa 0 mm - 682 W/m² -
1788622935 32.22° C 67% 1014.8 hPa 0 mm - 388 W/m² -
1788622630 31.67° C 68% 1014.7 hPa 0 mm - 104 W/m² -
1788622326 31.11° C 70% 1014.9 hPa 0 mm - 648 W/m² -
1788622021 31.11° C 72% 1015 hPa 0 mm - 192 W/m² -
1788621715 30° C 74% 1014.9 hPa 0 mm - 258 W/m² -

* Rain latest hour (hover to see other rain measurements)
** Current wind speed in m/s (hover to see current wind gust speed)